Other Public Products
Issued by NWS Charleston, SC

Current Version | Previous Version | Text Only | Print | Product List | Glossary Off
Versions: 1 2 3 4 5 6 7 8 9 10 11 12 13 14 15 16 17 18 19 20 21 22 23 24 25 26 27 28 29 30 31 32 33 34 35 36 37 38 39 40 41 42 43 44 45 46 47 48 49 50

402
FPUS82 KCHS 200627
OPUCHS

TEST...KCHS/KSAV Gateway Observations...TEST
National Weather Service Charleston SC
200 AM EDT THU JUL 20 2017

NOTE: "fair" indicates few or no clouds below 12,000 feet with no
significant weather and/or obstructions to visibility.

SCZ050-WAZ558-NCZ071-TXZ119-213-PAZ071-DCZ001-FLZ074-172-MI076-
NYZ176-178-MAZ016-IL014-TNZ027-NJZ106-GAZ044-MD014-200700-

...Gateway Observations for Charleston International...

CITY           SKY/WX    TMP DP  RH WIND       PRES   REMARKS
Chas Airport   PTCLDY    71  69  93 CALM      30.08F
6HR MIN TEMP:  71; 6HR MAX TEMP:  74; 6HR PCP: TRACE;

Seattle        PTCLDY    63  53  70 W3        30.04S
6HR MIN TEMP:  63; 6HR MAX TEMP:  78;

Charlotte      PTCLDY    73  67  81 N5        30.11S
6HR MIN TEMP:  72; 6HR MAX TEMP:  80;

Dallas DFW     CLEAR     84  71  65 SE6       30.06R
6HR MIN TEMP:  84; 6HR MAX TEMP:  95;

Dallas Love    PTCLDY    87  70  56 S14       30.06S HX  92
6HR MIN TEMP:  87; 6HR MAX TEMP:  95;

Philladelphia  PTCLDY    81  74  79 SW8       30.00F
6HR MIN TEMP:  81; 6HR MAX TEMP:  88;

Wash National  MOCLDY    82  76  81 S6        30.03F
6HR MIN TEMP:  82; 6HR MAX TEMP:  91;

Baltimore      PTCLDY    80  74  81 SW3       30.01F
6HR MIN TEMP:  80; 6HR MAX TEMP:  87;

Miami          MOCLDY    82  77  84 E3        30.07F HX  90
6HR MIN TEMP:  79; 6HR MAX TEMP:  83; 6HR PCP:  0.02;

Detroit        CLOUDY    74  71  91 CALM      30.04F
6HR MIN TEMP:  74; 6HR MAX TEMP:  81; 6HR PCP: TRACE;

Newark         PTCLDY    82  70  66 SW8       29.98S
6HR MIN TEMP:  81; 6HR MAX TEMP:  90; 6HR PCP: TRACE;

Laguardia      MOCLDY    82  74  76 CALM      29.97S
6HR MIN TEMP:  81; 6HR MAX TEMP:  92;

J F K          PTCLDY    82  75  79 W10       29.99S
6HR MIN TEMP:  79; 6HR MAX TEMP:  82;

Boston Logan   PTCLDY    77  62  59 W9        29.94S
6HR MIN TEMP:  77; 6HR MAX TEMP:  88;

Ft. Lauderdale CLOUDY    82  77  84 SE7       30.07F HX  90
6HR MIN TEMP:  78; 6HR MAX TEMP:  83; 6HR PCP:  0.01;

Chicago O`Hare CLOUDY    70  66  87 S7        29.99F
6HR MIN TEMP:  70; 6HR MAX TEMP:  82; 6HR PCP:  0.48;

Chicago Midway CLOUDY    72  68  87 SE5       29.99F
6HR MIN TEMP:  71; 6HR MAX TEMP:  81; 6HR PCP:  0.20;

Houston Bush   PTCLDY    82  75  79 S6        30.08S
6HR MIN TEMP:  82; 6HR MAX TEMP:  90;

Houston Hobby  PTCLDY    82  75  79 S5        30.08S
6HR MIN TEMP:  82; 6HR MAX TEMP:  91;

Nashville      PTCLDY    76  73  91 CALM      30.13S
6HR MIN TEMP:  76; 6HR MAX TEMP:  84;

Atlanta        PTCLDY    77  71  82 SW5       30.11F
6HR MIN TEMP:  77; 6HR MAX TEMP:  89;


$$

GAZ044-118-TXZ119-213-NCZ071-DCZ001-MDZ014-506-PAZ021-071-NJZ106-
NYZ176-178-MAZ106-OHZ011-021-055-MIZ076-KYZ091-ILZ014-INZ047-
MNZ060-ONZ431-200700-

...Gateway Observations for Savannah International...

CITY           SKY/WX    TMP DP  RH WIND       PRES   REMARKS
Savannah Arpt  CLEAR     75  73  93 CALM      30.09F
6HR MIN TEMP:  74; 6HR MAX TEMP:  84; 6HR PCP:  0.10;

Atlanta        PTCLDY    77  71  82 SW5       30.11F
6HR MIN TEMP:  77; 6HR MAX TEMP:  89;

Charlotte      PTCLDY    73  67  81 N5        30.11S
6HR MIN TEMP:  72; 6HR MAX TEMP:  80;

Dallas DFW     CLEAR     84  71  65 SE6       30.06R
6HR MIN TEMP:  84; 6HR MAX TEMP:  95;

Houston Bush   PTCLDY    82  75  79 S6        30.08S
6HR MIN TEMP:  82; 6HR MAX TEMP:  90;

Wash National  MOCLDY    82  76  81 S6        30.03F
6HR MIN TEMP:  82; 6HR MAX TEMP:  91;

Wash Dulles    CLEAR     75  72  90 CALM      30.04F
6HR MIN TEMP:  74; 6HR MAX TEMP:  88;

Baltimore      PTCLDY    80  74  81 SW3       30.01F
6HR MIN TEMP:  80; 6HR MAX TEMP:  87;

Philadelphia   PTCLDY    81  74  79 SW8       30.00F
6HR MIN TEMP:  81; 6HR MAX TEMP:  88;

Newark         PTCLDY    82  70  66 SW8       29.98S
6HR MIN TEMP:  81; 6HR MAX TEMP:  90; 6HR PCP: TRACE;

Laguardia      MOCLDY    82  74  76 CALM      29.97S
6HR MIN TEMP:  81; 6HR MAX TEMP:  92;

J F K          PTCLDY    82  75  79 W10       29.99S
6HR MIN TEMP:  79; 6HR MAX TEMP:  82;

Boston         PTCLDY    77  62  59 W9        29.94S
6HR MIN TEMP:  77; 6HR MAX TEMP:  88;

Pittsburg      CLEAR     75  69  81 CALM      30.08F
6HR MIN TEMP:  75; 6HR MAX TEMP:  85;

Akron          PTCLDY    72  66  81 S6        30.08F
6HR MIN TEMP:  72; 6HR MAX TEMP:  85;

Cleveland      PTCLDY    78  67  68 S8        30.06F
6HR MIN TEMP:  75; 6HR MAX TEMP:  88;

Cincinnati     CLEAR     71  69  93 CALM      30.12S
6HR MIN TEMP:  69; 6HR MAX TEMP:  86;

Columbus       CLEAR     71  70  96 CALM      30.08F
Detroit        CLOUDY    74  71  91 CALM      30.04F
6HR MIN TEMP:  74; 6HR MAX TEMP:  81; 6HR PCP: TRACE;

Chicago O`Hare CLOUDY    70  66  87 S7        29.99F
6HR MIN TEMP:  70; 6HR MAX TEMP:  82; 6HR PCP:  0.48;

Minneapolis    CLOUDY    70  67  90 E5        29.94F
6HR MIN TEMP:  69; 6HR MAX TEMP:  73; 6HR PCP:  0.74;

Indianapolis   CLEAR     76  72  87 SW3       30.10F
6HR MIN TEMP:  76; 6HR MAX TEMP:  84;

Toronto Canada PTCLDY    66  59  77 NW9       30.02S

$$




USA.gov is the U.S. government's official web portal to all federal, state and local government web resources and services.